When you browse on this site, cookies collect data to enhance your experience and personalize the content and advertising you see.
Visit our Privacy Policy to learn more. By continuing to use the site, you agree to this use of cookies and data.

Hourly Weather Armawir

Today, 10 August, Monday

Time Temperature Precipitation Wind Pressure Humidity
00:00 +24°C° 0 mm 1 mps 683 mmHg 48%
01:00 +24°C° 0 mm 1 mps 683 mmHg 49%
02:00 +23°C° 0 mm 1 mps 683 mmHg 50%
03:00 +23°C° 0 mm 1 mps 683 mmHg 50%
04:00 +23°C° 0 mm 1 mps 683 mmHg 51%
05:00 +23°C° 0 mm 1 mps 684 mmHg 51%
06:00 +23°C° 0 mm 1 mps 684 mmHg 52%
07:00 +26°C° 0 mm 1 mps 684 mmHg 45%
08:00 +28°C° 0 mm 1 mps 684 mmHg 39%
09:00 +30°C° 0 mm 1 mps 684 mmHg 32%
10:00 +32°C° 0 mm 2 mps 685 mmHg 29%
11:00 +34°C° 0 mm 2 mps 685 mmHg 26%
12:00 +36°C° 0 mm 3 mps 685 mmHg 22%
13:00 +36°C° 0 mm 3 mps 684 mmHg 21%
14:00 +37°C° 0 mm 3 mps 684 mmHg 19%
15:00 +38°C° 0 mm 3 mps 684 mmHg 17%
16:00 +38°C° 0 mm 3 mps 684 mmHg 19%
17:00 +37°C° 0 mm 3 mps 684 mmHg 21%
18:00 +37°C° 0 mm 3 mps 684 mmHg 22%
19:00 +34°C° 0 mm 3 mps 684 mmHg 29%
20:00 +30°C° 0 mm 3 mps 684 mmHg 37%
21:00 +28°C° 0 mm 3 mps 684 mmHg 44%
22:00 +27°C° 0 mm 3 mps 684 mmHg 45%
23:00 +26°C° 0 mm 3 mps 684 mmHg 47%

Tomorrow, 11 August, Tuesday

Time Temperature Precipitation Wind Pressure Humidity
00:00 +25°C° 0 mm 3 mps 684 mmHg 49%
01:00 +25°C° 0 mm 3 mps 684 mmHg 50%
02:00 +24°C° 0 mm 3 mps 684 mmHg 52%
03:00 +24°C° 0 mm 2 mps 684 mmHg 53%
04:00 +24°C° 0 mm 2 mps 684 mmHg 54%
05:00 +24°C° 0 mm 2 mps 684 mmHg 55%
06:00 +24°C° 0 mm 2 mps 684 mmHg 56%
07:00 +26°C° 0 mm 2 mps 685 mmHg 50%
08:00 +28°C° 0 mm 2 mps 685 mmHg 45%
09:00 +29°C° 0 mm 2 mps 685 mmHg 40%
10:00 +31°C° 0 mm 2 mps 685 mmHg 36%
11:00 +32°C° 0 mm 1 mps 685 mmHg 33%
12:00 +34°C° 0 mm 1 mps 684 mmHg 30%
13:00 +35°C° 0 mm 1 mps 684 mmHg 28%
14:00 +36°C° 0 mm 1 mps 684 mmHg 25%
15:00 +37°C° 0 mm 2 mps 684 mmHg 23%
16:00 +36°C° 0 mm 3 mps 684 mmHg 27%
17:00 +35°C° 0 mm 4 mps 684 mmHg 30%
18:00 +34°C° 0 mm 6 mps 684 mmHg 34%
19:00 +32°C° 0.2 mm 5 mps 684 mmHg 39%
20:00 +28°C° 0.2 mm 4 mps 684 mmHg 45%
21:00 +26°C° 0.2 mm 3 mps 684 mmHg 50%
22:00 +26°C° 0 mm 3 mps 684 mmHg 52%
23:00 +25°C° 0 mm 3 mps 685 mmHg 53%

Day after tomorrow, 12 August, Wednesday

Time Temperature Precipitation Wind Pressure Humidity
00:00 +25°C° 0 mm 3 mps 685 mmHg 55%
01:00 +24°C° 0 mm 3 mps 685 mmHg 56%
02:00 +24°C° 0 mm 3 mps 685 mmHg 58%
03:00 +22°C° 0 mm 4 mps 684 mmHg 59%
04:00 +22°C° 0 mm 3 mps 685 mmHg 59%
05:00 +22°C° 0 mm 3 mps 685 mmHg 60%
06:00 +22°C° 0 mm 3 mps 685 mmHg 60%
07:00 +25°C° 0 mm 3 mps 685 mmHg 54%
08:00 +27°C° 0 mm 2 mps 686 mmHg 48%
09:00 +29°C° 0 mm 2 mps 686 mmHg 42%
10:00 +30°C° 0 mm 2 mps 686 mmHg 39%
11:00 +31°C° 0 mm 2 mps 686 mmHg 35%
12:00 +33°C° 0 mm 1 mps 686 mmHg 32%
13:00 +34°C° 0 mm 1 mps 686 mmHg 30%
14:00 +34°C° 0 mm 1 mps 685 mmHg 28%
15:00 +35°C° 0 mm 1 mps 685 mmHg 26%
16:00 +36°C° 0 mm 2 mps 685 mmHg 27%
17:00 +35°C° 0 mm 3 mps 685 mmHg 28%
18:00 +35°C° 0 mm 4 mps 685 mmHg 30%
19:00 +33°C° 0 mm 4 mps 685 mmHg 35%
20:00 +30°C° 0 mm 3 mps 686 mmHg 40%
21:00 +28°C° 0 mm 3 mps 686 mmHg 46%
22:00 +27°C° 0 mm 2 mps 686 mmHg 48%
23:00 +26°C° 0 mm 2 mps 686 mmHg 50%

13 August, Thursday

Time Temperature Precipitation Wind Pressure Humidity
00:00 +26°C° 0 mm 2 mps 686 mmHg 52%
01:00 +25°C° 0 mm 2 mps 685 mmHg 53%
02:00 +25°C° 0 mm 2 mps 685 mmHg 55%
03:00 +24°C° 0 mm 2 mps 685 mmHg 56%
04:00 +24°C° 0 mm 2 mps 685 mmHg 56%
05:00 +24°C° 0 mm 2 mps 685 mmHg 55%
06:00 +25°C° 0 mm 2 mps 685 mmHg 55%
07:00 +26°C° 0.2 mm 2 mps 685 mmHg 52%
08:00 +27°C° 0.2 mm 2 mps 685 mmHg 50%
09:00 +28°C° 0.2 mm 2 mps 685 mmHg 47%
10:00 +29°C° 0.2 mm 2 mps 685 mmHg 43%
11:00 +31°C° 0.2 mm 2 mps 685 mmHg 39%
12:00 +32°C° 0.2 mm 1 mps 685 mmHg 36%
13:00 +33°C° 0.1 mm 1 mps 685 mmHg 33%
14:00 +35°C° 0.1 mm 2 mps 684 mmHg 30%
15:00 +36°C° 0.1 mm 2 mps 684 mmHg 28%
16:00 +35°C° 0.1 mm 3 mps 684 mmHg 30%
17:00 +34°C° 0.1 mm 3 mps 684 mmHg 32%
18:00 +33°C° 0.1 mm 4 mps 684 mmHg 35%
19:00 +30°C° 0.2 mm 4 mps 684 mmHg 41%
20:00 +28°C° 0.2 mm 4 mps 684 mmHg 47%
21:00 +26°C° 0.2 mm 3 mps 685 mmHg 53%
22:00 +25°C° 0.2 mm 3 mps 684 mmHg 55%
23:00 +25°C° 0.2 mm 3 mps 684 mmHg 58%

14 August, Friday

Time Temperature Precipitation Wind Pressure Humidity
00:00 +24°C° 0.2 mm 3 mps 684 mmHg 60%
01:00 +24°C° 0.1 mm 3 mps 684 mmHg 61%
02:00 +22°C° 0.1 mm 3 mps 684 mmHg 63%
03:00 +22°C° 0.1 mm 3 mps 684 mmHg 64%
04:00 +22°C° 0.2 mm 3 mps 684 mmHg 64%
05:00 +22°C° 0.2 mm 3 mps 684 mmHg 65%
06:00 +23°C° 0.2 mm 2 mps 684 mmHg 65%
07:00 +24°C° 0.2 mm 2 mps 684 mmHg 60%
08:00 +25°C° 0.2 mm 3 mps 684 mmHg 54%
09:00 +27°C° 0.2 mm 3 mps 684 mmHg 49%
10:00 +28°C° 0.1 mm 2 mps 684 mmHg 44%
11:00 +30°C° 0.1 mm 2 mps 684 mmHg 39%
12:00 +32°C° 0.1 mm 2 mps 684 mmHg 34%
13:00 +33°C° 0.1 mm 3 mps 684 mmHg 32%
14:00 +34°C° 0.1 mm 3 mps 684 mmHg 30%
15:00 +35°C° 0.1 mm 4 mps 683 mmHg 28%
16:00 +34°C° 0.1 mm 4 mps 683 mmHg 31%
17:00 +33°C° 0.1 mm 4 mps 683 mmHg 34%
18:00 +30°C° 0.1 mm 5 mps 683 mmHg 37%
19:00 +29°C° 0.1 mm 4 mps 684 mmHg 41%
20:00 +27°C° 0.1 mm 4 mps 684 mmHg 45%
21:00 +25°C° 0.1 mm 3 mps 684 mmHg 49%
22:00 +25°C° 0 mm 4 mps 684 mmHg 50%
23:00 +23°C° 0 mm 4 mps 684 mmHg 51%

15 August, Saturday

Time Temperature Precipitation Wind Pressure Humidity
00:00 +22°C° 0 mm 4 mps 684 mmHg 52%
01:00 +22°C° 0 mm 4 mps 684 mmHg 53%
02:00 +21°C° 0 mm 4 mps 684 mmHg 55%
03:00 +21°C° 0 mm 3 mps 684 mmHg 56%
04:00 +21°C° 0 mm 3 mps 684 mmHg 56%
05:00 +21°C° 0 mm 3 mps 684 mmHg 56%
06:00 +21°C° 0 mm 3 mps 685 mmHg 56%
07:00 +22°C° 0 mm 3 mps 685 mmHg 51%
08:00 +25°C° 0 mm 3 mps 685 mmHg 47%
09:00 +26°C° 0 mm 3 mps 685 mmHg 42%
10:00 +28°C° 0 mm 2 mps 685 mmHg 39%
11:00 +29°C° 0 mm 2 mps 685 mmHg 37%
12:00 +30°C° 0 mm 1 mps 685 mmHg 35%
13:00 +31°C° 0 mm 2 mps 685 mmHg 34%
14:00 +31°C° 0 mm 2 mps 684 mmHg 33%
15:00 +33°C° 0 mm 3 mps 684 mmHg 31%
16:00 +32°C° 0 mm 4 mps 684 mmHg 33%
17:00 +30°C° 0 mm 4 mps 684 mmHg 34%
18:00 +30°C° 0 mm 5 mps 684 mmHg 36%
19:00 +28°C° 0.1 mm 4 mps 684 mmHg 40%
20:00 +26°C° 0.1 mm 3 mps 685 mmHg 45%
21:00 +25°C° 0.1 mm 2 mps 685 mmHg 49%
22:00 +24°C° 0.1 mm 2 mps 685 mmHg 51%
23:00 +23°C° 0.1 mm 2 mps 685 mmHg 54%
Show more